When you browse on this site, cookies collect data to enhance your experience and personalize the content and advertising you see.
Visit our Privacy Policy to learn more. By continuing to use the site, you agree to this use of cookies and data.
  • In Österreich
  • Länderverzeichnis
  • Für 7 Tage
  • Wassertemperatur
  • Wetterkarte
  • News
  • Widgets
  • user-avatar
    Anmelden

    Stündliche Wetter Edmundston

    Heute, 14 Dezember, Samstag

    Zeit Temperatur Niederschläge Wind Luftdruck Luftfeuchtigkeit
    00:00 -15°C° 0 mm 1 m/S 698 mmHg 95%
    01:00 -15°C° 0 mm 1 m/S 698 mmHg 96%
    02:00 -16°C° 0 mm 1 m/S 698 mmHg 95%
    03:00 -16°C° 0 mm 1 m/S 697 mmHg 95%
    04:00 -17°C° 0 mm 1 m/S 697 mmHg 95%
    05:00 -19°C° 0 mm 2 m/S 696 mmHg 94%
    06:00 -19°C° 0 mm 2 m/S 696 mmHg 94%
    07:00 -19°C° 0 mm 2 m/S 695 mmHg 94%
    08:00 -17°C° 0 mm 2 m/S 695 mmHg 93%
    09:00 -16°C° 0 mm 2 m/S 695 mmHg 92%
    10:00 -15°C° 0 mm 3 m/S 694 mmHg 91%
    11:00 -13°C° 0 mm 3 m/S 694 mmHg 91%
    12:00 -10°C° 0 mm 3 m/S 694 mmHg 91%
    13:00 -8°C° 0 mm 3 m/S 694 mmHg 91%
    14:00 -9°C° 0 mm 4 m/S 694 mmHg 89%
    15:00 -9°C° 0 mm 4 m/S 693 mmHg 87%
    16:00 -10°C° 0 mm 4 m/S 693 mmHg 86%
    17:00 -11°C° 0 mm 4 m/S 693 mmHg 85%
    18:00 -11°C° 0 mm 4 m/S 693 mmHg 85%
    19:00 -12°C° 0 mm 3 m/S 693 mmHg 85%
    20:00 -13°C° 0 mm 3 m/S 694 mmHg 86%
    21:00 -13°C° 0 mm 3 m/S 694 mmHg 87%
    22:00 -14°C° 0 mm 3 m/S 694 mmHg 88%
    23:00 -15°C° 0 mm 3 m/S 695 mmHg 90%

    Morgen, 15 Dezember, Sonntag

    Zeit Temperatur Niederschläge Wind Luftdruck Luftfeuchtigkeit
    00:00 -16°C° 0 mm 3 m/S 695 mmHg 92%
    01:00 -16°C° 0 mm 2 m/S 695 mmHg 94%
    02:00 -17°C° 0 mm 2 m/S 695 mmHg 95%
    03:00 -18°C° 0 mm 2 m/S 696 mmHg 95%
    04:00 -17°C° 0 mm 1 m/S 696 mmHg 96%
    05:00 -17°C° 0 mm 1 m/S 696 mmHg 96%
    06:00 -18°C° 0 mm 1 m/S 696 mmHg 97%
    07:00 -18°C° 0 mm 0 m/S 696 mmHg 97%
    08:00 -17°C° 0 mm 1 m/S 696 mmHg 96%
    09:00 -16°C° 0 mm 1 m/S 696 mmHg 95%
    10:00 -16°C° 0 mm 2 m/S 697 mmHg 94%
    11:00 -15°C° 0 mm 2 m/S 696 mmHg 93%
    12:00 -14°C° 0 mm 2 m/S 696 mmHg 91%
    13:00 -13°C° 0 mm 2 m/S 696 mmHg 89%
    14:00 -14°C° 0 mm 3 m/S 696 mmHg 88%
    15:00 -14°C° 0 mm 3 m/S 696 mmHg 88%
    16:00 -15°C° 0 mm 3 m/S 696 mmHg 87%
    17:00 -15°C° 0 mm 3 m/S 696 mmHg 87%
    18:00 -15°C° 0 mm 3 m/S 696 mmHg 87%
    19:00 -14°C° 0 mm 3 m/S 695 mmHg 86%
    20:00 -14°C° 0 mm 3 m/S 695 mmHg 85%
    21:00 -15°C° 0 mm 4 m/S 695 mmHg 84%
    22:00 -15°C° 0 mm 4 m/S 695 mmHg 83%
    23:00 -15°C° 0 mm 4 m/S 695 mmHg 82%

    übermorgen, 16 Dezember, Montag

    Zeit Temperatur Niederschläge Wind Luftdruck Luftfeuchtigkeit
    00:00 -15°C° 0 mm 4 m/S 695 mmHg 82%
    01:00 -15°C° 0 mm 4 m/S 695 mmHg 81%
    02:00 -15°C° 0 mm 4 m/S 695 mmHg 81%
    03:00 -15°C° 0 mm 4 m/S 695 mmHg 81%
    04:00 -16°C° 0 mm 4 m/S 696 mmHg 81%
    05:00 -16°C° 0 mm 4 m/S 696 mmHg 81%
    06:00 -16°C° 0 mm 4 m/S 696 mmHg 81%
    07:00 -16°C° 0 mm 4 m/S 696 mmHg 81%
    08:00 -14°C° 0 mm 3 m/S 697 mmHg 81%
    09:00 -14°C° 0 mm 3 m/S 697 mmHg 82%
    10:00 -13°C° 0 mm 3 m/S 697 mmHg 82%
    11:00 -13°C° 0 mm 3 m/S 697 mmHg 82%
    12:00 -12°C° 0 mm 3 m/S 697 mmHg 83%
    13:00 -10°C° 0 mm 3 m/S 697 mmHg 83%
    14:00 -10°C° 0 mm 2 m/S 697 mmHg 84%
    15:00 -10°C° 0 mm 2 m/S 698 mmHg 85%
    16:00 -9°C° 0 mm 1 m/S 698 mmHg 86%
    17:00 -9°C° 0.2 mm 1 m/S 698 mmHg 89%
    18:00 -9°C° 0.2 mm 1 m/S 698 mmHg 92%
    19:00 -8°C° 0.2 mm 1 m/S 698 mmHg 95%
    20:00 -8°C° 0.4 mm 1 m/S 698 mmHg 96%
    21:00 -8°C° 0.4 mm 1 m/S 698 mmHg 96%
    22:00 -8°C° 0.4 mm 1 m/S 698 mmHg 96%
    23:00 -9°C° 0 mm 2 m/S 698 mmHg 94%

    17 Dezember, Dienstag

    Zeit Temperatur Niederschläge Wind Luftdruck Luftfeuchtigkeit
    00:00 -9°C° 0 mm 2 m/S 698 mmHg 93%
    01:00 -8°C° 0 mm 2 m/S 698 mmHg 91%
    02:00 -8°C° 0 mm 2 m/S 698 mmHg 89%
    03:00 -8°C° 0 mm 2 m/S 697 mmHg 86%
    04:00 -9°C° 0 mm 3 m/S 697 mmHg 83%
    05:00 -9°C° 0 mm 3 m/S 697 mmHg 83%
    06:00 -8°C° 0 mm 3 m/S 696 mmHg 82%
    07:00 -8°C° 0 mm 3 m/S 696 mmHg 82%
    08:00 -7°C° 0 mm 3 m/S 695 mmHg 81%
    09:00 -6°C° 0 mm 3 m/S 695 mmHg 80%
    10:00 -5°C° 0 mm 4 m/S 694 mmHg 79%
    11:00 -5°C° 0 mm 3 m/S 694 mmHg 80%
    12:00 -4°C° 0 mm 3 m/S 693 mmHg 80%
    13:00 -2°C° 0 mm 3 m/S 692 mmHg 81%
    14:00 -2°C° 0 mm 3 m/S 692 mmHg 81%
    15:00 -2°C° 0 mm 3 m/S 691 mmHg 82%
    16:00 -2°C° 0 mm 3 m/S 691 mmHg 82%
    17:00 -1°C° 0 mm 3 m/S 690 mmHg 81%
    18:00 -2°C° 0 mm 4 m/S 690 mmHg 80%
    19:00 -2°C° 0 mm 4 m/S 689 mmHg 78%
    20:00 -2°C° 0 mm 4 m/S 689 mmHg 78%
    21:00 -2°C° 0 mm 4 m/S 689 mmHg 77%
    22:00 -3°C° 0 mm 4 m/S 689 mmHg 76%
    23:00 -3°C° 0 mm 4 m/S 689 mmHg 78%

    18 Dezember, Mittwoch

    Zeit Temperatur Niederschläge Wind Luftdruck Luftfeuchtigkeit
    00:00 -4°C° 0 mm 4 m/S 690 mmHg 79%
    01:00 -4°C° 0 mm 4 m/S 690 mmHg 80%
    02:00 -5°C° 0 mm 3 m/S 691 mmHg 82%
    03:00 -6°C° 0 mm 3 m/S 692 mmHg 84%
    04:00 -7°C° 0 mm 3 m/S 693 mmHg 86%
    05:00 -10°C° 0 mm 3 m/S 693 mmHg 87%
    06:00 -12°C° 0 mm 2 m/S 693 mmHg 88%
    07:00 -15°C° 0 mm 2 m/S 693 mmHg 88%
    08:00 -14°C° 0 mm 2 m/S 694 mmHg 89%
    09:00 -14°C° 0 mm 2 m/S 694 mmHg 89%
    10:00 -14°C° 0 mm 2 m/S 695 mmHg 89%
    11:00 -14°C° 0 mm 2 m/S 694 mmHg 90%
    12:00 -13°C° 0 mm 2 m/S 694 mmHg 90%
    13:00 -14°C° 0 mm 3 m/S 694 mmHg 91%
    14:00 -15°C° 0 mm 3 m/S 694 mmHg 91%
    15:00 -15°C° 0 mm 3 m/S 694 mmHg 91%
    16:00 -17°C° 0 mm 4 m/S 693 mmHg 92%
    17:00 -17°C° 0 mm 4 m/S 693 mmHg 91%
    18:00 -17°C° 0 mm 4 m/S 693 mmHg 91%
    19:00 -17°C° 0 mm 4 m/S 693 mmHg 91%
    20:00 -16°C° 0 mm 4 m/S 693 mmHg 91%
    21:00 -16°C° 0 mm 4 m/S 693 mmHg 91%
    22:00 -16°C° 0 mm 4 m/S 692 mmHg 91%
    23:00 -16°C° 0 mm 4 m/S 692 mmHg 92%

    19 Dezember, Donnerstag

    Zeit Temperatur Niederschläge Wind Luftdruck Luftfeuchtigkeit
    00:00 -16°C° 0 mm 4 m/S 692 mmHg 92%
    01:00 -15°C° 0 mm 3 m/S 692 mmHg 93%
    02:00 -15°C° 0 mm 3 m/S 692 mmHg 94%
    03:00 -15°C° 0 mm 3 m/S 692 mmHg 94%
    04:00 -15°C° 0 mm 3 m/S 691 mmHg 95%
    05:00 -14°C° 0 mm 2 m/S 691 mmHg 95%
    06:00 -15°C° 0 mm 2 m/S 691 mmHg 95%
    07:00 -15°C° 0 mm 2 m/S 691 mmHg 96%
    08:00 -14°C° 0 mm 2 m/S 692 mmHg 96%
    09:00 -12°C° 0 mm 1 m/S 692 mmHg 95%
    10:00 -11°C° 0 mm 1 m/S 692 mmHg 95%
    11:00 -11°C° 0 mm 1 m/S 692 mmHg 95%
    12:00 -11°C° 0 mm 1 m/S 692 mmHg 95%
    13:00 -10°C° 0 mm 1 m/S 692 mmHg 94%
    14:00 -11°C° 0 mm 1 m/S 692 mmHg 94%
    15:00 -11°C° 0 mm 1 m/S 692 mmHg 94%
    16:00 -12°C° 0 mm 1 m/S 692 mmHg 94%
    17:00 -11°C° 0 mm 1 m/S 692 mmHg 93%
    18:00 -10°C° 0 mm 1 m/S 693 mmHg 93%
    19:00 -10°C° 0 mm 1 m/S 693 mmHg 92%
    20:00 -10°C° 0 mm 1 m/S 693 mmHg 91%
    21:00 -10°C° 0 mm 0 m/S 694 mmHg 91%
    22:00 -9°C° 0 mm 0 m/S 694 mmHg 90%
    23:00 -10°C° 0 mm 1 m/S 694 mmHg 89%
    Mehr zeigen